This is the latest recevied weather packets stored in our database for station/object KB1RMA-4. If no packets are shown the sender has not sent any weather packets the latest 10 day(s).
| Time | Temp. | Humidity | Pressure | Rain* | Wind** | Luminosity | Snow |
|---|---|---|---|---|---|---|---|
| 1788521503 | 18.33° C | 98% | 1010.5 hPa | 0 mm | - | 41 W/m² | - |
| 1788521198 | 18.33° C | 98% | 1010.2 hPa | 0 mm | - | 52 W/m² | - |
| 1788520894 | 18.33° C | 98% | 1010.2 hPa | 0 mm | - | 53 W/m² | - |
| 1788520590 | 18.33° C | 98% | 1010.1 hPa | 0 mm | - | 52 W/m² | - |
| 1788520285 | 18.33° C | 98% | 1010.1 hPa | 0 mm | - | 33 W/m² | - |
| 1788519981 | 18.33° C | 98% | 1010.2 hPa | 0 mm | - | 30 W/m² | - |
| 1788519680 | 18.33° C | 98% | 1009.9 hPa | 0 mm | - | 28 W/m² | - |
| 1788519407 | 18.33° C | 98% | 1009.8 hPa | 0 mm | - | 21 W/m² | - |
| 1788519075 | 18.33° C | 98% | 1009.9 hPa | 0 mm | - | 15 W/m² | - |
| 1788518771 | 18.33° C | 98% | 1010 hPa | 0 mm | - | 12 W/m² | - |
| 1788518466 | 18.33° C | 98% | 1009.9 hPa | 0 mm | - | 8 W/m² | - |
| 1788518162 | 18.33° C | 98% | 1010.1 hPa | 0 mm | - | 7 W/m² | - |
| 1788517858 | 18.33° C | 98% | 1010.1 hPa | 0 mm | - | 6 W/m² | - |
| 1788517553 | 18.33° C | 98% | 1010 hPa | 0 mm | - | 4 W/m² | - |
| 1788517248 | 18.33° C | 98% | 1010.1 hPa | 0 mm | - | 1 W/m² | - |
| 1788516945 | 18.33° C | 98% | 1009.8 hPa | 0 mm | - | 1 W/m² | - |
| 1788516640 | 17.78° C | 98% | 1009.8 hPa | 0 mm | - | 0 W/m² | - |
| 1788516336 | 17.78° C | 98% | 1009.9 hPa | 0 mm | - | 0 W/m² | - |
| 1788516031 | 17.78° C | 98% | 1010.1 hPa | 0 mm | - | 0 W/m² | - |
| 1788515726 | 17.78° C | 98% | 1009.9 hPa | 0 mm | - | 0 W/m² | - |
| 1788515421 | 17.78° C | 98% | 1010.2 hPa | 0 mm | - | 0 W/m² | - |
| 1788515115 | 17.78° C | 98% | 1010 hPa | 0 mm | - | 0 W/m² | - |
| 1788514839 | 17.78° C | 98% | 1010 hPa | 0 mm | - | 0 W/m² | - |
| 1788514508 | 17.78° C | 98% | 1010 hPa | 0 mm | - | 0 W/m² | - |
| 1788514202 | 17.78° C | 98% | 1009.9 hPa | 0 mm | - | 0 W/m² | - |
* Rain latest hour (hover to see other rain measurements)
** Current wind speed in m/s (hover to see current wind gust speed)